Location: San Savino
(45.1333°N, 10.0833°E)
Time: 21:35:28
(UTC+00:00)

Daily predictions for brighter satellites

Satellite Brightness Start Highest point End
(mag) Time Altitude Azimuth Time Altitude Azimuth Time Altitude Azimuth
SL-08 RB Rocket 4.1 18:33:29 10° S 18:38:08 74° WSW 18:42:47 10° NNW
Okean-O 3.7 18:34:40 10° S 18:38:56 48° W 18:43:15 10° NNW
MetOp-A 4.2 18:35:04 10° SSE 18:40:21 64° ENE 18:45:39 10° N
ARGOS 4.0 18:36:13 10° S 18:41:28 54° W 18:46:44 10° NNW
Cosmos 482 Debris 3.9 18:38:26 10° WSW 18:41:30 54° NNW 18:43:39 10° NE
Cosmos 1408 3.3 18:39:05 10° N 18:42:20 32° ENE 18:45:34 10° SE
RESURS DK-1 3.4 18:40:37 10° SSE 18:43:56 24° ESE 18:47:17 10° NE
Cosmos 1300 3.7 18:41:35 10° SSW 18:45:17 52° WNW 18:49:01 10° N
CSL-04 Rocket 4.1 18:46:20 10° S 18:51:35 67° WSW 18:56:52 10° NNW
CENTAUR R/B 4.1 18:44:32 10° NW 18:52:27 50° WSW 19:00:53 10° S
Cosmos 2058 3.9 18:49:43 10° NNE 18:53:24 29° ENE 18:57:02 10° SE
CZ-2C R/B 3.4 18:50:15 10° N 18:55:20 56° WNW 19:00:27 10° SSW
Cosmos 1992 Rocket 4.3 18:51:37 10° NNW 18:56:42 50° ENE 19:01:44 10° SE
Cosmos 2058 Rocket 3.4 18:53:22 10° SSE 18:57:31 45° E 19:01:41 10° NNE
DMSP B5D2-2 4.2 18:52:47 10° NNE 18:58:04 86° WNW 19:03:19 10° SSW
Cosmos 2360 Rocket 2.8 18:53:26 10° NNW 18:59:00 59° WSW 19:04:31 10° S
ATLAS 3B R/B 3.2 18:52:32 10° NNW 18:59:22 52° NE 19:05:56 12° ESE
COSMOS 2487 2.3 18:58:03 10° S 19:01:26 69° ESE 19:04:50 10° NNE
Cosmos 1689 Rocket 4.3 18:59:26 10° N 19:01:57 29° WNW 19:04:27 10° SW
COSMOS 2428 3.0 18:56:55 10° NNW 19:02:34 53° ENE 19:07:47 12° SE
USA 186 2.0 18:59:22 10° S 19:02:36 72° W 19:05:44 10° NNW
Cosmos 1953 Rocket 3.5 18:58:42 10° N 19:03:06 83° E 19:07:25 10° S
USA 215 4.0 18:58:46 10° E 19:04:55 45° NNE 19:11:05 10° NW
SME Rocket 3.6 19:02:20 10° N 19:06:09 64° WNW 19:10:57 10° SSW
Cosmos 1092 Rocket 4.0 19:00:20 10° N 19:06:37 69° E 19:12:46 10° SSE
Cosmos 2333 4.3 19:01:49 10° NNW 19:07:39 88° WSW 19:13:22 10° SSE
Cosmos 1818 3.9 19:06:12 10° S 19:11:17 42° ESE 19:16:25 10° NE
FALCON 9 DEB 3.4 19:09:11 10° SW 19:12:27 45° SE 19:15:45 10° ENE
Cosmos 909 Rocket 4.3 19:07:03 10° S 19:13:05 45° ESE 19:19:04 10° NE
ERS-2 3.6 19:12:03 10° N 19:15:30 41° WNW 19:18:55 10° SW
Cosmos 44 3.6 19:10:49 10° SSW 19:15:42 51° ESE 19:20:53 10° NE
Resurs 01 Rocket 2.4 19:12:45 15° SE 19:15:54 35° ENE 19:19:59 10° N
Cosmos 2219 Rocket 2.2 19:10:18 10° NNW 19:16:02 77° ENE 19:21:13 13° SSE
Cosmos 1455 2.0 19:15:06 10° S 19:18:49 71° E 19:22:34 10° NNE
ATLAS 5 CENTAUR R/B 4.4 19:20:14 10° WNW 19:23:12 18° NNW 19:26:25 10° NNE
Resurs 1-3 3.5 19:23:13 12° SSE 19:27:18 76° ENE 19:31:42 10° N
Cosmos 1633 4.1 19:26:59 10° NNE 19:29:36 19° ENE 19:30:05 18° E
IGS 5A 4.1 19:27:42 22° SE 19:29:53 38° ENE 19:33:45 10° N
Cosmos 1356 4.1 19:27:51 10° N 19:31:05 36° ENE 19:32:13 28° ESE
Lacrosse 5 rocket 3.8 19:28:03 10° WNW 19:31:11 20° NNW 19:34:26 10° NE
ATLAS 5 CENTAUR R/B 1.1 19:30:34 10° NW 19:32:23 49° SW 19:33:14 29° SSE
Abrixas rocket 3.5 19:32:13 10° SW 19:32:30 13° SW 19:32:30 13° SW
Cosmos 405 Rocket 3.1 19:31:33 10° N 19:35:29 49° ENE 19:37:21 26° SE
Cosmos 1428 Rocket 4.5 19:30:00 10° N 19:36:17 89° E 19:42:35 10° S
Cosmos 1140 Rocket 4.4 19:38:38 24° ESE 19:39:35 25° E 19:43:43 10° NE
SJ-6B 4.1 19:37:39 10° SSW 19:41:06 36° W 19:44:37 10° NNW
Cosmos 2279 Rocket 4.0 19:35:06 10° S 19:41:07 58° E 19:47:12 10° NNE
SPOT 5 4.5 19:40:17 16° E 19:41:33 17° ENE 19:44:35 10° NNE
Cosmos 2237 Rocket 2.8 19:37:25 10° NNW 19:42:46 42° ENE 19:45:36 24° ESE
Spot 2 Rocket 4.5 19:41:32 23° ESE 19:43:35 31° ENE 19:48:00 10° N
Exosat Rocket 3.8 19:37:00 10° NNW 19:43:35 89° ENE 19:47:11 21° SSE
BREEZE-M DEB (TANK) 3.6 19:39:09 10° W 19:43:50 84° N 19:48:44 13° E
BREEZE-M DEB (TANK) 4.3 19:42:18 10° W 19:45:35 66° N 19:54:41 10° ENE
SL-8 R/B 3.7 19:41:43 10° WNW 19:46:34 82° SSW 19:48:58 30° ESE
CZ-2C R/B 4.0 19:44:39 10° NNE 19:48:54 43° E 19:50:38 29° SSE
OBJECT-B 2.9 19:46:53 10° SSW 19:49:35 25° W 19:52:20 10° NW
Cosmos 2026 Rocket 4.1 19:43:56 10° NNW 19:49:59 73° W 19:56:04 10° S
Terra 3.6 19:50:06 15° ENE 19:51:08 16° ENE 19:54:01 10° NNE
MetOp-B 4.2 19:52:09 27° SE 19:55:03 63° ENE 20:00:22 10° N
Cosmos 2227 Rocket 2.9 19:57:04 30° ESE 19:57:46 31° ESE 20:02:39 10° NE
SPOT 1/Viking Rocket 3.8 19:58:13 32° SE 20:00:26 54° ENE 20:05:32 10° N
Cosmos 389 Rocket 2.3 20:00:14 39° S 20:01:26 79° E 20:04:59 10° NNE
Cosmos 2251 Rocket 3.7 19:56:13 10° SSW 20:01:34 74° WNW 20:06:57 10° NNE
Cosmos 2297 Rocket 2.4 20:02:12 25° SSE 20:05:03 45° ESE 20:10:24 10° NE
Cosmos 2333 Rocket 3.4 20:00:53 10° NW 20:06:09 38° WSW 20:10:56 12° S
SPOT 3 Rocket 3.6 20:03:45 24° S 20:06:56 80° WSW 20:12:10 10° NNW
Cosmos 2266 Rocket 4.3 20:01:02 10° N 20:07:15 51° ENE 20:09:47 33° SE
Cosmos 2219 3.5 20:05:52 32° SSE 20:07:43 42° ESE 20:12:59 10° NE
Cosmos 1190 Rocket 4.4 20:07:40 37° ESE 20:08:22 39° ESE 20:13:13 10° NE
BREEZE-M DEB (TANK) 2.3 20:06:12 10° WNW 20:08:17 48° N 20:08:17 48° N
ATLAS 2AS CENTAUR R/B 3.9 20:01:13 10° WSW 20:08:54 51° NW 20:16:26 10° NNE
Cosmos 1825 3.7 20:05:46 10° NNW 20:09:12 33° W 20:11:59 14° SSW
ARIANE 5 R/B 3.0 20:09:20 40° E 20:10:06 45° ENE 20:14:18 10° N
Ariane Rocket 4.3 20:07:57 10° SSW 20:12:35 36° W 20:17:15 10° NNW
Timation 2 Rocket 4.3 20:10:14 26° SSE 20:13:32 45° ESE 20:19:33 10° NE
RESURS DK-1 4.1 20:18:01 10° WSW 20:21:48 34° NW 20:25:36 10° N
Landsat 7 4.0 20:20:37 34° S 20:22:40 68° WSW 20:27:26 10° NNW
USA 245 3.1 20:24:37 74° SE 20:24:55 82° ENE 20:28:24 10° N
Genesis I 4.1 20:21:26 10° NNW 20:25:11 37° NE 20:25:22 37° NE
Cosmos-2242 2.9 20:25:50 62° ESE 20:25:57 62° E 20:30:14 10° NNE
Cosmos 2180 Rocket 4.5 20:23:20 15° SSW 20:28:29 80° W 20:34:39 10° N
Cosmos 1655 Rocket 3.9 20:28:51 10° N 20:35:10 87° W 20:37:46 38° S
SL-16 R/B 2.8 20:31:24 10° NNW 20:36:47 41° NE 20:37:53 37° E
Cosmos 1980 3.8 20:32:24 10° NNW 20:38:05 74° WSW 20:39:45 47° S
TRAILBLAZER 4.5 20:38:00 10° NW 20:42:42 81° NE 20:42:58 77° ESE
Cosmos 2151 3.3 20:40:31 10° NNW 20:44:47 61° W 20:45:17 56° SW
COSMOS 2428 4.4 20:41:51 10° NW 20:46:28 26° WSW 20:49:50 15° SSW
Meteor 2-3 Rocket 3.7 20:41:10 10° NNW 20:46:58 84° W 20:48:26 52° S
Cosmos 2344 4.3 20:39:56 10° WSW 20:47:11 53° NW 20:55:05 10° NE
USA 215 3.2 20:45:38 47° SE 20:47:41 76° SW 20:54:15 10° NW
Meteor 1-27 4.1 20:47:48 57° SSE 20:48:55 74° E 20:54:44 10° NNE
ATLAS 3B R/B 3.7 20:43:27 10° NW 20:49:59 41° WSW 20:53:12 27° SSW
Resurs 01 Rocket 3.5 20:50:18 17° SW 20:52:27 24° W 20:56:07 10° NW
ERS-1 Rocket 2.8 20:54:40 77° SE 20:54:59 84° ENE 21:00:03 10° NNW
Cosmos 407 Rocket 3.8 20:53:35 24° SW 20:56:34 62° WNW 21:01:43 10° NNE
Cosmos 2219 Rocket 4.5 20:55:49 10° WNW 20:59:15 17° W 21:02:42 10° SW
Okean 3 Rocket 3.7 20:55:16 10° N 20:59:21 68° NNE 20:59:21 68° NNE
Cosmos 1766 Rocket 3.8 20:59:50 10° N 21:03:29 62° N 21:03:29 62° N
CARTOSAT-1 4.0 21:04:22 57° W 21:04:22 57° W 21:08:29 10° NNW
Cosmos 1633 4.3 21:01:16 10° NNW 21:04:10 28° W 21:04:10 28° W
Meteor 2-15 4.3 21:09:37 65° ESE 21:09:46 66° E 21:15:46 10° NNE
Lacrosse 5 rocket 4.0 21:08:44 10° NW 21:11:40 18° N 21:14:12 12° NE
Cosmos 1954 Rocket 3.9 21:12:17 75° NE 21:12:17 75° NE 21:17:02 10° NNE
COSMOS 2455 2.9 21:18:15 60° ENE 21:18:15 60° ENE 21:23:26 10° NE
SPOT 5 3.2 21:19:30 56° WNW 21:19:30 56° WNW 21:23:46 10° NNW
Cosmos 1140 Rocket 4.5 21:18:31 25° WSW 21:21:06 43° WNW 21:26:01 10° N
Cosmos 2237 Rocket 3.3 21:21:43 10° NW 21:26:40 32° WSW 21:27:26 31° WSW
SeaSat 1 4.1 21:22:38 10° NE 21:24:38 23° NE 21:24:38 23° NE
Terra 2.2 21:28:59 60° NW 21:28:59 60° NW 21:33:06 10° NNW
Timation 1 Rocket 4.2 21:33:38 87° NW 21:33:38 87° NW 21:39:37 10° NNE
Cosmos 2082 3.7 21:39:13 73° N 21:39:13 73° N 21:44:22 10° NNE
Cosmos 2263 Rocket 3.9 21:42:46 21° ENE 21:42:46 21° ENE 21:44:53 10° NE
Cosmos 2227 Rocket 3.2 21:38:46 25° WSW 21:41:37 44° WNW 21:47:02 10° NNE
USA 229 DEB 4.5 21:37:13 10° NNW 21:44:13 49° NE 21:46:08 41° E
USA 229 4.5 21:37:19 10° NNW 21:44:19 48° NE 21:46:15 40° E
Cosmos 468 Rocket 4.4 21:39:33 10° NNW 21:43:44 59° NNW 21:43:44 59° NNW
Cosmos 2297 Rocket 3.8 21:44:13 10° WSW 21:49:14 32° NW 21:54:18 10° N
Cosmos 841 Rocket 4.3 21:47:27 10° NNW 21:51:30 44° NNE 21:51:30 44° NNE
Cosmos 1745 Rocket 4.1 21:50:43 10° N 21:56:32 65° NE 21:56:32 65° NE
NOSS 3-1 (A) 4.4 21:54:55 10° NNW 22:02:12 57° NE 22:04:04 47° E
Cosmos 1763 Rocket 4.3 21:59:20 10° NNW 22:02:58 45° NW 22:02:58 45° NW
S3M 4.1 22:08:54 69° NE 22:08:54 69° NE 22:14:35 10° N
SL-16 R/B 3.5 22:15:44 10° NW 22:19:46 31° W 22:19:46 31° W
NOSS 3-1 (C) 3.9 22:20:53 10° NW 22:28:27 81° SW 22:28:42 80° SSW
Aureole 1 Rocket 4.5 22:38:07 47° NNW 22:38:07 47° NNW 22:41:43 10° NNE
Cosmos 1943 4.1 22:45:08 10° NNW 22:48:59 45° NW 22:48:59 45° NW
Lacrosse 5 rocket 3.8 22:47:49 10° NW 22:49:48 23° NNW 22:49:48 23° NNW
SeaSat 1 4.0 23:00:26 10° N 23:04:24 30° NW 23:04:24 30° NW
Cosmos 2315 Rocket 4.4 23:10:31 61° NNW 23:10:31 61° NNW 23:15:55 10° N
Cosmos 2263 Rocket 3.3 23:24:26 37° NW 23:24:26 37° NW 23:28:58 10° NNE
USA 281 3.3 23:33:03 72° NNE 23:33:03 72° NNE 23:39:06 10° NNW
Cosmos 1844 Rocket 3.8 23:39:31 39° NE 23:39:31 39° NE 23:43:03 10° NNE
Cosmos 2074 Rocket 4.3 23:38:16 10° N 23:43:22 61° NNW 23:43:22 61° NNW
SJ 16-02 4.2 23:56:02 11° ENE 23:56:02 11° ENE 23:56:19 10° ENE
